#timestamp,LO_Frequency,Hit,StdDev 
1634202015.7,286046996.6,N
1634202035.5,286046998.6,N
1634202055.3,286046996.5,N
1634202075.2,286046996.9,N
1634202095.0,286046996.6,N
1634202095.9,286046996.6,N
1634202115.8,286046997.7,N
1634202135.6,286046997.7,N
1634202155.4,286046995.0,Y
1634202175.3,286047001.1,P
1634202195.1,286046999.1,N
1634202215.8,286046999.3,N
1634202235.7,286046997.2,N
1634202255.5,286046999.5,N
1634202275.4,286046999.4,N
1634202295.2,286046999.4,N
1634202315.0,286046996.7,N
1634202315.9,286046996.7,N
1634202335.8,286046997.8,N
1634202355.6,286046996.6,N
1634202375.4,286046996.7,N
1634202395.3,286046996.9,N
1634202415.1,286046998.0,N
1634202435.9,286046996.2,N
1634202455.7,286046993.5,Y
1634202475.5,286046997.8,P
1634202495.4,286046998.0,P
1634202515.2,286046999.3,P
1634202535.0,286046996.8,Y
1634202536.0,286046996.8,P
1634202555.8,286046999.5,N
1634202575.6,286046999.0,N
1634202595.5,286046999.3,N
1634202615.3,286046999.3,N
1634202635.1,286047000.8,N
1634202655.9,286047000.6,N
1634202675.7,286046999.4,N
1634202695.6,286046999.0,N
1634202715.4,286046998.3,N
1634202735.2,286046999.3,N
1634202755.1,286046999.0,N
1634202756.0,286046999.0,N
1634202775.8,286046999.2,N
1634202795.6,286046999.2,N
1634202815.5,286046997.0,Y
1634202835.3,286046999.5,P
1634202855.2,286046999.2,P
1634202875.9,286047000.8,P
1634202895.7,286046998.4,N
1634202915.6,286046999.3,N
1634202935.4,286046999.1,N
1634202955.3,286046999.4,N
1634202975.1,286046997.1,Y
1634202976.0,286046997.1,P
1634202995.8,286046998.9,N
1634203015.7,286046999.6,N
1634203035.5,286046999.3,N
1634203055.4,286047001.1,N
1634203075.2,286046998.1,N
1634203095.0,286046998.2,N
1634203095.9,286046998.2,N
1634203115.8,286046998.4,N
1634203135.6,286046998.6,N
1634203155.4,286047000.9,N
1634203175.3,286047001.2,N
1634203195.1,286046999.1,N
1634203215.9,286046998.2,N
1634203235.7,286047001.1,N
1634203255.5,286046998.2,N
1634203275.4,286047000.6,N
1634203295.2,286047000.5,N
1634203315.0,286047001.0,N
1634203315.9,286047001.0,N
1634203335.8,286046999.9,N
1634203355.6,286047001.2,N
1634203375.5,286047000.6,N
1634203395.3,286047000.6,N
1634203415.1,286047000.5,N
1634203435.9,286047001.1,N
1634203455.7,286046998.7,N
1634203475.5,286046998.3,N
1634203495.4,286046998.2,N
1634203515.2,286046999.9,N
1634203535.1,286047002.5,N
1634203536.0,286047002.5,N
1634203555.8,286046999.9,N
1634203575.6,286047002.3,N
1634203595.5,286047000.3,N
1634203615.3,286047002.4,N
1634203635.1,286047000.5,N
1634203655.9,286046999.7,N
1634203675.7,286047000.3,N
1634203695.6,286046998.2,N
1634203715.4,286047000.6,N
1634203735.2,286047000.0,N
1634203755.1,286047002.8,N
1634203756.0,286047002.8,N
1634203775.8,286047002.2,N
1634203795.6,286047002.3,N
1634203815.5,286047003.5,N
1634203835.3,286047001.7,N
1634203855.1,286047004.0,N
1634203875.9,286047003.8,N
1634203895.7,286047004.3,N
1634203915.6,286047004.1,N
1634203935.4,286047003.1,N
1634203955.2,286047003.5,N
1634203975.1,286047003.7,N
1634203976.0,286047003.7,N
1634203995.8,286047004.0,N
1634204015.6,286047003.4,N
1634204035.5,286047001.4,N
1634204055.3,286047004.0,N
1634204075.2,286047003.5,N
1634204095.9,286047004.2,N
1634204115.7,286047001.7,N
1634204135.6,286047001.9,N
1634204155.4,286047001.8,N
1634204175.2,286047001.4,N
1634204195.1,286047003.6,N
1634204196.0,286047003.6,N
1634204215.8,286047004.3,N
1634204235.7,286047002.2,N
1634204255.5,286047001.7,N
1634204275.3,286047002.1,N
1634204295.2,286047001.6,N
1634204315.0,286047002.2,N
1634204315.9,286047002.2,N
1634204335.8,286047002.4,N
1634204355.6,286047002.8,N
1634204375.4,286046999.9,N
1634204395.3,286047000.7,N
1634204415.1,286046999.7,N
1634204435.8,286046999.7,N
1634204455.7,286047000.9,N
1634204475.5,286047000.8,N
1634204495.4,286047000.9,N
1634204515.2,286047000.2,N
1634204535.0,286047000.8,N
1634204535.9,286047000.8,N
1634204555.8,286047001.2,N
1634204575.6,286046999.9,N
1634204595.4,286046999.9,N
1634204615.3,286047000.5,N
1634204635.1,286046999.9,N
1634204655.9,286047000.6,N
1634204675.7,286047002.4,N
1634204695.5,286047000.2,N
1634204715.4,286047001.6,N
1634204735.2,286047001.8,N
1634204755.0,286047002.2,N
1634204755.9,286047002.2,N
1634204775.8,286047002.1,N
1634204795.6,286047001.4,N
1634204815.5,286047001.6,N
1634204835.3,286047002.4,N
1634204855.1,286047002.1,N
1634204875.9,286047001.6,N
1634204895.7,286047002.4,N
1634204915.6,286047002.3,N
1634204935.4,286046999.9,N
1634204955.2,286047002.6,N
1634204975.1,286047000.3,N
1634204976.0,286047000.3,N
1634204995.8,286047000.4,N
1634205015.6,286047000.9,N
1634205035.5,286047000.4,N
1634205055.3,286047000.6,N
1634205075.2,286047000.8,N
1634205095.9,286047001.0,N
1634205115.7,286046999.2,N
1634205135.6,286046997.5,N
1634205155.4,286046997.8,N
1634205175.2,286046997.8,N
1634205195.1,286046998.0,N
1634205196.0,286046998.0,N
1634205215.8,286046999.6,N
1634205235.7,286046998.9,N
1634205255.5,286046999.0,N
1634205275.3,286046997.1,N
1634205295.2,286046999.4,N
1634205315.0,286046996.5,N
1634205315.9,286046996.5,N
1634205335.7,286046997.0,N
1634205355.6,286046996.5,N
1634205375.4,286046998.4,N
1634205395.3,286046997.2,N
1634205415.1,286046997.3,N
1634205435.8,286046994.9,N
1634205455.7,286046997.1,N
1634205475.5,286046999.5,N
1634205495.3,286046996.7,N
1634205515.2,286046995.0,Y
1634205535.0,286046996.5,P
1634205535.9,286046996.5,P
1634205555.8,286046998.1,N
1634205575.6,286046999.5,N
1634205595.4,286046999.1,N
